星链-1180 (STARLINK-1180 )

导读

STARLINK-1180(星链-1180)是美国太空探索技术公司(SpaceX)研发运营的星链低轨互联网卫星,属于Starlink V1.0平台,于2020年1月29日发射升空。该卫星运行于倾角53.040°的近地轨道,近地点约214公里,周期约88.8分钟,是星链全球卫星互联网组网的组成部分,最终于2024年8月17日前再入陨落,完成服役使命。

基本信息
目录编号:
45076
目录名称:
STARLINK-1180
国际标识:
2020-006AJ
轨道中心:
EARTH
卫星名称:
星链-1180
卫星全名:
星链-1180 (STARLINK-1180 )
卫星状态:
已陨落 最后检测时间 2024-08-17
发射日期:
2020-01-29 UTC
国别 :
美国 (US)
星等 :
--
该卫星已列入 空间交会检测服务 Space Conjunction Data Service (SCDS) ,当前飞行风险评估等级: 无高风险
轨道信息
数据来源 国际轨道数据
星历时间: 2024-08-17T04:57:49+0800
轨道信息已过期756天
半长轴: 6592.341km
偏心率: 0.0000684
轨道倾角: 53.040°
近地点辐角 153.531°
升交点赤经 234.354°
平近点角 348.535°
近地点: 213.755km
远地点: 214.657km
周期: 88.781分钟
每日圈数: 16.219717
详细信息
固有亮度:
5
最大亮度:
2.5
卫星平台:
Starlink V1.0
覆盖范围:
全球
运营商:
太空探索技术公司
运营商所在国:
美国
制造商(研发单位):
太空探索技术公司
制造商所在国:
美国
使用方式:
暂无
卫星简介
星链(Starlink)计划是由太空探索技术公司(SpaceX)提出的一个巨型低轨卫星互联网星座项目,计划在2019年至2024年间在太空搭建由约1.2万颗卫星组成的“星链”网络,其中1584颗将部署在地球上空550千米处的近地轨道,并从2020年开始工作。该卫星仍在工作。
与全量物体交会距离演化趋势
与全量物体交会风险概率演化趋势